Weather Roundup
Issued by NWS

Home | Current Version | Previous Version | Text Only | Print | Product List | Glossary On
Versions: 1 2 3 4 5 6 7 8 9 10 11 12 13 14 15 16 17 18 19 20 21 22 23 24 25 26 27 28 29 30 31 32 33 34 35 36 37 38 39 40 41 42 43 44 45 46 47 48 49 50
000
NZUS93 KARX 170810
HRRWXR

CURRENT HOURLY OBSERVATIONS ACROSS
MUCH OF THE UPPER MISSISSIPPI VALLEY
NATIONAL WEATHER SERVICE LA CROSSE WI
200 AM CST TUE JAN 17 2017


...SOUTHEAST MINNESOTA...


CITY           SKY/WX    TMP DP  RH WIND       PRES   REMARKS
ROCHESTER      FRZ RAIN  32  32 100 N7        29.87S FOG     WCI  26
ROCHESTER/MAYO CLOUDY    32  32 100 CALM      29.87F
WINONA         CLOUDY    34  34 100 NW6       29.89F FOG     WCI  29
AUSTIN         CLOUDY    32  30  93 CALM      29.87S FOG
ALBERT LEA     CLOUDY    32  32 100 N6        29.88F FOG     WCI  26
DODGE CENTER   MIX PCPN  30  30 100 CALM      29.88S
PRESTON        CLOUDY    31  30  96 CALM      29.86S FOG
OWATONNA       LGT RAIN  30  30 100 N6        29.90F WCI  24
FARIBAULT      MIX PCPN  30  28  93 NW6       29.92S WCI  24
$$

...ELSEWHERE IN MINNESOTA...


CITY           SKY/WX    TMP DP  RH WIND       PRES   REMARKS
MINNEAPOLIS    LGT SNOW  30  27  88 N6        29.94F FOG     WCI  24
INTNL FALLS    PTCLDY     1  -4  79 CALM      29.97S
DULUTH         CLOUDY    21  16  81 N3        29.96F
RED WING       LGT SNOW  34  30  86 CALM      29.91S
REDWOOD FALLS  CLOUDY    29  27  92 NW9       29.97S FOG     WCI  20
MANKATO        LGT SNOW  30  28  92 N12       29.93S FOG     WCI  20
WORTHINGTON    CLOUDY    27  27 100 NW13      29.95S FOG     WCI  16
FAIRMONT       LGT SNOW  30  28  93 N16       29.93R FOG     WCI  19
$$

...SOUTHWEST WISCONSIN...


CITY           SKY/WX    TMP DP  RH WIND       PRES   REMARKS
LA CROSSE      CLOUDY    36  32  85 NW7       29.87F FOG     WCI  30
PRAIRIE DU CHI CLOUDY    33  32  96 CALM      29.84S FOG
BOSCOBEL       CLOUDY    34  33  96 CALM      29.84F FOG
LONE ROCK      CLOUDY    34  32  92 NE5       29.83F WCI  30
PLATTEVILLE    CLOUDY    34  34 100 N7        29.81S WCI  28
FORT MC COY    CLOUDY    32  32 100 N5        29.87S FOG     WCI  27
CAMP DOUGLAS   CLOUDY    33  32  98 NE3       29.85F
MAUSTON-NEW LI CLOUDY    33  32  99 CALM      29.84F FOG
VIROQUA        CLOUDY    32  32 100 CALM      29.83S
WIS DELLS      FOG       32  32 100 NE6       29.83F VSB 3/4 WCI  26
$$

...ELSEWHERE IN WISCONSIN...


CITY           SKY/WX    TMP DP  RH WIND       PRES   REMARKS
MILWAUKEE      DRZL/FOG  38  36  92 NE6       29.81F VSB 1/2 WCI  33
MADISON        LGT RAIN  33  33 100 N8        29.81F FOG     WCI  26
GREEN BAY      MIX PCPN  35  34  96 NE12      29.90F FOG     WCI  27
EAU CLAIRE     LGT SNOW  33  32  96 NE8       29.90S FOG     WCI  26
BLACK RVR FLS  LGT RAIN  33  33 100 N5        29.87F WCI  28
MEDFORD        MIX PCPN  32  31  96 NE7       29.88F WCI  25
WAUSAU         LGT RAIN  33  32  96 NE7       29.88F WCI  27
WIS RAPIDS     LGT RAIN  33  33 100 E7        29.88F FOG     WCI  27
MARSHFIELD     CLOUDY    33  31  92 NE12      29.85F FOG     WCI  24
RICE LAKE      LGT SNOW  31  30  96 N12       29.94F WCI  22
$$

...NORTHEAST IOWA...


CITY           SKY/WX    TMP DP  RH WIND       PRES   REMARKS
WATERLOO       CLOUDY    32  32 100 NW7       29.84F FOG     WCI  26
DUBUQUE        FOG       33  33 100 N8        29.80F VSB 1/4 WCI  26
DECORAH        CLOUDY    32  32 100 VRB5      29.82F WCI  27
MASON CITY     CLOUDY    32  31  96 NW10      29.89R FOG     WCI  24
CHARLES CITY   CLOUDY    32  32 100 MISG      29.86R FOG
OELWEIN        FOG       32  32 100 N8        29.84S VSB 1/2 WCI  25
$$

...ELSEWHERE IN IOWA...


CITY           SKY/WX    TMP DP  RH WIND       PRES   REMARKS
DES MOINES     DRZL/FOG  34  32  92 NW12      29.90S VSB 3/4 WCI  25
IOWA CITY      CLOUDY    36  35  96 NW6       29.85R WCI  31
FORT DODGE     CLOUDY    32  28  86 CALM      29.91F
MARSHALLTOWN   FOG       32  32 100 NW9       29.86R VSB 1/2 WCI  24
CEDAR RAPIDS   FOG       33  32  96 NW7       29.82R VSB 1/2 WCI  27
$$

...NORTHERN ILLINOIS...


CITY           SKY/WX    TMP DP  RH WIND       PRES   REMARKS
CHICAGO-OHARE  TSTM      38  38 100 NE3       29.76S FOG
CHICAGO-MIDWAY TSTM      38  38 100 NW13      29.76R VSB 1   WCI  30
MOLINE         FOG       36  34  92 SW3       29.81R VSB 3/4
ROCKFORD       RAIN      37  35  92 N8        29.78F FOG     WCI  31
PEORIA         CLOUDY    45  45 100 W7        29.81R FOG
$$

NOTE: "FAIR" INDICATES FEW OR NO CLOUDS BELOW 12,000 FEET WITH NO
SIGNIFICANT WEATHER AND/OR OBSTRUCTIONS TO VISIBILITY. WIND
SPEEDS ARE IN MILES-PER-HOUR.




USA.gov is the U.S. government's official web portal to all federal, state and local government web resources and services.